Location: *
(2.5500°S, 65.9667°W)
Time: 12:34:22
(UTC+00:00)

Cosmos 2123 Rocket - Pass Details

Date: 26 October 2021
Orbit: 961 x 992 km, 82.9° (Epoch: 29 November)

Event Time Altitude Azimuth Distance (km) Brightness Sun altitude
Rises 22:27:52 0° 4° (N) 3,667 6.8 -4.3°
Reaches altitude 10° 22:30:25 10° 8° (N) 2,718 6.1 -4.9°
Maximum altitude 22:36:33 62° 87° (E) 1,090 4.0 -6.4°
Drops below altitude 10° 22:42:39 10° 167° (SSE) 2,710 6.3 -7.9°
Sets 22:45:11 0° 170° (S) 3,655 7.1 -8.5°
